Tracking 25710 objects as of 7-Jul-2022
HD Live streaming from Space Station
objects crossing your sky now

FENGYUN 1C DEB

Track FENGYUN 1C DEB now!
10-day predictions


NORAD ID: 36661
Int'l Code: 1999-025DYF
Perigee: 807.9 km
Apogee: 839.0 km
Inclination: 98.9 °
Period: 101.2 minutes
Semi major axis: 7194 km
RCS: 0.0121 m2 (small)
Launch date: May 10, 1999
Source: People's Republic of China (PRC)
Launch site: Taiyaun Space Center, China (TSC)

Note: This is SATELLITE DEBRIS
aabbcc
Your satellite tracking list
Your tracking list is empty




NASA's NSSDC Master Catalog

Two Line Element Set (TLE):
1 36661U 99025DYF 22186.45290604  .00001690  00000-0  77376-3 0  9995
2 36661  98.9235 260.1286 0021580 347.0529  78.2218 14.22677480465713
Source of the keplerian elements: AFSPC